Weather in Leonora

Australia     28°53′05″S   121°19′51″E
temp.,
°C
wind,
m/s
gust,
m/s
humid.,
%
clouds,
%
prec.,
mm/h
press.,
hPa
HPBL,
m
12 april, mon
mon1223:00+24ne10192999 0.0 1008416
02:00+25nne91730100 0.0 1006674
05:00+24n101741100 0.6 1005488
08:00+26nw11196462 1.1 10061414
11:00+29wnw141950100 0.1 10051909
14:00+28wnw12185472 0.3 10041875
17:00+30nw12163668 0.0 10042145
20:00+23ssw812685 0.0 1008416
13 april, tue
tue1323:00+21ssw686722 0.0 1010744
02:00+19s697333 0.0 1011504
05:00+17s577617 0.0 1013508
08:00+17s8864100 0.0 1016795
11:00+18s565227 0.0 10171149
14:00+23ssw66340 0.0 10151827
17:00+21s65210 0.0 10171726
20:00+17s58290 0.0 1020124
14 april, wed
wed1423:00+15sse611360 0.0 1021223
02:00+13sse510436 0.0 1022176
05:00+11se6125870 0.0 1024303
08:00+14ese710580 0.0 1025604
11:00+19ese66350 0.0 10241320
14:00+22se55240 0.0 10211700
17:00+21se55240 0.0 10221662
20:00+17se59320 0.0 1024117
15 april, thu
thu1523:00+15se46370 0.0 102586
02:00+14se46424 0.0 102493
05:00+12ese45480 0.0 102558
08:00+15ese68390 0.0 1026390
11:00+21e77280 0.0 10251469
14:00+24ese66220 0.0 10221898
17:00+22ese67250 0.0 10221601
20:00+18se612360 0.0 1025215
16 april, fri
fri1623:00+16ese59430 0.0 1025160
02:00+14ese46490 0.0 102585
05:00+13ese48540 0.0 1026127
08:00+16e610470 0.0 1027461
11:00+22e77311 0.0 10251515
14:00+24e66240 0.0 10221951
17:00+24ese67250 0.0 1023792
20:00+19ese611377 0.0 1025203